Location: Izdebno
(52.6670°N, 16.2170°E)
Time: 11:21:31
(UTC+01:00)

Transit 2A - Pass Details

Date: 04 February 2023
Orbit: 591 x 964 km, 66.7° (Epoch: 21 March)

Event Time Altitude Azimuth Distance (km) Brightness Sun altitude
Rises 20:17:44 0° 284° (WNW) 3,207 10.3 -32.1°
Reaches altitude 10° 20:20:37 10° 301° (WNW) 2,354 9.3 -32.5°
Maximum altitude 20:24:43 21° 350° (N) 1,794 8.1 -33.1°
Enters shadow 20:25:17 21° 358° (N) 1,818 8.0 -33.2°
Drops below altitude 10° 20:29:06 10° 39° (NE) 2,544 - -33.7°
Sets 20:32:22 0° 54° (NE) 3,545 - -34.2°
